Track GONETS M 11 (M21) now! 10-day predictions GONETS M 11 (M21) is classified as:
1 40552U 15020A 26017.63824652 -.00000065 00000-0 -53880-3 0 9996 2 40552 82.4875 124.8073 0015168 332.9751 27.0537 12.42869778490032